Вернуться в каталог

HULIANWANG DIGUI-186

АктивенНаукаLEO
NORAD 100211·PAYLOAD·🇨🇳 China

Запущен Aug 4, 2026 с Wenchang Space Launch Site

Loading…

Ближайшие Пролёты (ближайшие 24 часа)

TLE

СвежийSource: Space-Track

Эпоха: Sep 14, 2026, 22:32 UTC

1 A0211U 26176J   26257.93939043 -.00000084  00000-0  86690-4 0  9994
2 A0211  49.9936 243.6354 0000205   6.0424 354.0451 13.29327870  5566

Отслеживайте HULIANWANG DIGUI-186 в реальном времени с AllMySat

Download on the App Store